Estación de Polizones INIA

Ultimos registro cada 15 minutos 31
Estación Fecha / Hora Temperatura Humedad Lluvia Velocidad Dirección Radiación Presion
31 Polizones INIA 31-08-2026 07:30 0,4 99 0 0,1 306 2,6 1004
30 Polizones INIA 31-08-2026 07:15 0,5 98,8 0 0 0 0,9 1004
29 Polizones INIA 31-08-2026 07:00 0,4 98,8 0 0 0 0,1 1004
28 Polizones INIA 31-08-2026 06:45 0,3 98,8 0 0 0 0 1004
27 Polizones INIA 31-08-2026 06:30 0,2 98,8 0 0,1 208 0 1003
26 Polizones INIA 31-08-2026 06:15 0,4 98,5 0 0,1 203 0 1003
25 Polizones INIA 31-08-2026 06:00 0,3 98,6 0 0 0 0 1003
24 Polizones INIA 31-08-2026 05:45 0,2 98,7 0 0 0 0 1003
23 Polizones INIA 31-08-2026 05:30 0,2 98,6 0 0 0 0 1003
22 Polizones INIA 31-08-2026 05:15 0,1 98,5 0 0 0 0 1003
21 Polizones INIA 31-08-2026 05:00 -0,1 98,5 0 0 0 0 1003
20 Polizones INIA 31-08-2026 04:45 -0,3 98,5 0 0 0 0 1002
19 Polizones INIA 31-08-2026 04:30 -0,2 98,3 0 0,2 203 0 1002
18 Polizones INIA 31-08-2026 04:15 -0,1 98,1 0 0,9 51 0 1002
17 Polizones INIA 31-08-2026 04:00 -0,5 98,3 0 0 0 0 1002
16 Polizones INIA 31-08-2026 03:45 -0,2 97,9 0 0 0 0 1002
15 Polizones INIA 31-08-2026 03:30 0,5 97,7 0 0 0 0 1002
14 Polizones INIA 31-08-2026 03:15 1,5 97,7 0 0 0 0,1 1002
13 Polizones INIA 31-08-2026 03:00 1,6 98,3 0 0 27 0 1003
12 Polizones INIA 31-08-2026 02:45 1,6 97,8 0 0,7 18 0 1002
11 Polizones INIA 31-08-2026 02:30 0,8 98,1 0,1 0 0 0 1002
10 Polizones INIA 31-08-2026 02:15 0,8 97,6 0 0 0 0 1002
9 Polizones INIA 31-08-2026 02:00 0,9 97,6 0 0 0 0 1001
8 Polizones INIA 31-08-2026 01:45 1,4 97,2 0 0 0 0 1001
7 Polizones INIA 31-08-2026 01:30 1,6 97,6 0 0 0 0 1001
6 Polizones INIA 31-08-2026 01:15 2,1 97,2 0 0 0 0 1001
5 Polizones INIA 31-08-2026 01:00 2,6 97 0 0 0 0 1001
4 Polizones INIA 31-08-2026 00:45 3,3 97,1 0 0 0 0 1001
3 Polizones INIA 31-08-2026 00:30 3,6 96,9 0 0 0 0 1001
2 Polizones INIA 31-08-2026 00:15 3 98,4 0 0 0 0 1001
1 Polizones INIA 31-08-2026 00:00 2,9 97,9 0 0 0 0 1001